Time,TemperatureF,DewpointF,PressureIn,WindDirection,WindDirectionDegrees,WindSpeedMPH,WindSpeedGustMPH,Humidity,HourlyPrecipIn,Conditions,Clouds,dailyrainin,SoftwareType,DateUTC
2013-09-02 00:00:00,70.0,70.0,29.01,NNE,28,2.7,4.0,100,0.00,,,0.55,VWS V14.01,2013-09-02 04:00:00,
2013-09-02 00:01:00,70.0,70.0,29.01,NNE,28,0.0,4.0,100,0.00,,,0.55,VWS V14.01,2013-09-02 04:01:00,
2013-09-02 00:02:00,70.0,70.0,29.01,NNE,13,2.2,4.0,100,0.00,,,0.55,VWS V14.01,2013-09-02 04:02:00,
2013-09-02 00:06:00,70.0,70.0,29.01,ENE,60,0.0,3.6,100,0.00,,,0.00,VWS V14.01,2013-09-02 04:06:00,
2013-09-02 00:11:00,70.0,70.0,29.01,NE,54,3.6,4.0,100,0.00,,,0.00,VWS V14.01,2013-09-02 04:11:00,
2013-09-02 00:13:00,70.0,70.0,29.01,NE,43,4.9,4.9,100,0.00,,,0.00,VWS V14.01,2013-09-02 04:13:00,
2013-09-02 00:15:00,70.0,70.0,29.01,East,94,4.0,4.9,100,0.00,,,0.00,VWS V14.01,2013-09-02 04:15:00,
2013-09-02 00:19:00,69.8,69.8,29.01,NE,50,2.7,3.6,100,0.00,,,0.00,VWS V14.01,2013-09-02 04:19:00,
2013-09-02 00:24:00,70.0,70.0,29.01,East,83,2.7,2.7,100,0.00,,,0.00,VWS V14.01,2013-09-02 04:24:00,
2013-09-02 00:29:00,70.0,70.0,29.01,East,80,0.0,4.0,100,0.00,,,0.00,VWS V14.01,2013-09-02 04:29:00,
2013-09-02 00:34:00,69.8,69.8,29.01,ENE,73,2.7,4.0,100,0.00,,SCT050,0.00,VWS V14.01,2013-09-02 04:34:00,
2013-09-02 00:39:00,69.8,69.8,29.01,ENE,75,0.0,4.0,100,0.00,,SCT050,0.00,VWS V14.01,2013-09-02 04:39:00,
2013-09-02 00:44:00,69.8,69.8,29.01,ESE,120,3.1,3.1,100,0.00,,SCT050,0.00,VWS V14.01,2013-09-02 04:44:00,
2013-09-02 00:49:00,69.8,69.8,29.01,ESE,112,0.0,0.0,100,0.00,,SCT050,0.00,VWS V14.01,2013-09-02 04:49:00,
2013-09-02 00:54:00,69.8,69.8,29.01,SSE,155,2.2,2.7,100,0.00,,SCT050,0.00,VWS V14.01,2013-09-02 04:54:00,
2013-09-02 00:59:00,69.6,69.6,29.01,SE,140,0.0,3.1,100,0.00,,SCT050,0.00,VWS V14.01,2013-09-02 04:59:00,
2013-09-02 01:04:00,69.6,69.6,29.01,SE,143,2.7,4.0,100,0.00,,SCT050,0.00,VWS V14.01,2013-09-02 05:04:00,
2013-09-02 01:09:00,69.6,69.6,29.01,ESE,112,0.0,4.0,100,0.00,,SCT050,0.00,VWS V14.01,2013-09-02 05:09:00,
2013-09-02 01:14:00,69.4,69.4,29.01,ESE,113,0.0,0.0,100,0.00,,SCT050,0.00,VWS V14.01,2013-09-02 05:14:00,
2013-09-02 01:19:00,69.6,69.6,29.01,ESE,109,0.0,3.1,100,0.00,,SCT050,0.00,VWS V14.01,2013-09-02 05:19:00,
2013-09-02 01:24:00,69.4,69.4,29.01,SSE,152,2.7,3.6,100,0.00,,SCT050,0.00,VWS V14.01,2013-09-02 05:24:00,
2013-09-02 01:29:00,69.4,69.4,29.01,SSE,152,0.0,3.1,100,0.00,,SCT050,0.00,VWS V14.01,2013-09-02 05:29:00,
2013-09-02 01:34:00,69.4,69.4,29.01,East,89,0.0,3.6,100,0.00,,SCT250,0.00,VWS V14.01,2013-09-02 05:34:00,
2013-09-02 01:39:00,69.4,69.4,29.01,SSE,152,2.2,3.1,100,0.00,,SCT250,0.00,VWS V14.01,2013-09-02 05:39:00,
2013-09-02 01:44:00,69.3,69.3,29.01,ESE,108,2.7,3.6,100,0.00,,SCT250,0.00,VWS V14.01,2013-09-02 05:44:00,
2013-09-02 01:50:00,69.3,69.3,29.01,SE,146,2.7,3.6,100,0.00,,SCT250,0.00,VWS V14.01,2013-09-02 05:50:00,
2013-09-02 01:55:00,69.3,69.3,29.01,SE,146,0.0,0.0,100,0.00,,SCT250,0.00,VWS V14.01,2013-09-02 05:55:00,
2013-09-02 02:00:00,69.3,69.3,29.01,SE,146,0.0,2.2,100,0.00,,SCT250,0.00,VWS V14.01,2013-09-02 06:00:00,
2013-09-02 02:05:00,69.1,69.1,29.01,South,178,4.0,5.4,100,0.00,,SCT250,0.00,VWS V14.01,2013-09-02 06:05:00,
2013-09-02 02:10:00,69.1,69.1,28.98,SE,142,0.0,0.0,100,0.00,,SCT250,0.00,VWS V14.01,2013-09-02 06:10:00,
2013-09-02 02:15:00,68.9,68.9,28.98,SE,142,0.0,0.0,100,0.00,,SCT250,0.00,VWS V14.01,2013-09-02 06:15:00,
2013-09-02 02:20:00,69.1,69.1,28.98,SE,142,0.0,0.0,100,0.00,,SCT250,0.00,VWS V14.01,2013-09-02 06:20:00,
2013-09-02 02:25:00,68.9,68.9,28.98,SE,142,0.0,0.0,100,0.00,,SCT250,0.00,VWS V14.01,2013-09-02 06:25:00,
2013-09-02 02:30:00,68.9,68.9,28.98,SE,142,0.0,0.0,100,0.00,,SCT250,0.00,VWS V14.01,2013-09-02 06:30:00,
2013-09-02 02:35:00,68.9,68.9,28.98,SE,142,0.0,0.0,100,0.00,,BKN250,0.00,VWS V14.01,2013-09-02 06:35:00,
2013-09-02 02:40:00,68.9,68.9,28.98,SE,142,0.0,0.0,100,0.00,,BKN250,0.00,VWS V14.01,2013-09-02 06:40:00,
2013-09-02 02:45:00,68.7,68.7,28.98,SE,142,0.0,0.0,100,0.00,,BKN250,0.00,VWS V14.01,2013-09-02 06:45:00,
2013-09-02 02:50:00,68.9,68.9,28.98,SE,142,0.0,0.0,100,0.00,,BKN250,0.00,VWS V14.01,2013-09-02 06:50:00,
2013-09-02 02:55:00,68.7,68.7,28.98,SE,142,0.0,0.0,100,0.00,,BKN250,0.00,VWS V14.01,2013-09-02 06:55:00,
2013-09-02 03:00:00,68.9,68.9,28.98,SE,142,0.0,0.0,100,0.00,,BKN250,0.00,VWS V14.01,2013-09-02 07:00:00,
2013-09-02 03:05:00,68.7,68.7,28.98,SE,142,0.0,0.0,100,0.00,,BKN250,0.00,VWS V14.01,2013-09-02 07:05:00,
2013-09-02 03:10:00,68.7,68.7,28.98,SE,142,0.0,0.0,100,0.00,,BKN250,0.00,VWS V14.01,2013-09-02 07:10:00,
2013-09-02 03:15:00,68.7,68.7,28.98,SE,142,0.0,0.0,100,0.00,,BKN250,0.00,VWS V14.01,2013-09-02 07:15:00,
2013-09-02 03:20:00,68.7,68.7,28.98,SE,142,0.0,0.0,100,0.00,,BKN250,0.00,VWS V14.01,2013-09-02 07:20:00,
2013-09-02 03:25:00,68.5,68.5,28.98,SE,142,0.0,0.0,100,0.00,,BKN250,0.00,VWS V14.01,2013-09-02 07:25:00,
2013-09-02 03:30:00,68.7,68.7,28.98,SE,142,0.0,0.0,100,0.00,,BKN250,0.00,VWS V14.01,2013-09-02 07:30:00,
2013-09-02 03:35:00,68.5,68.5,28.98,SE,142,0.0,0.0,100,0.00,,OVC048,0.00,VWS V14.01,2013-09-02 07:35:00,
2013-09-02 03:40:00,68.5,68.5,28.98,SE,142,0.0,0.0,100,0.00,,OVC048,0.00,VWS V14.01,2013-09-02 07:40:00,
2013-09-02 03:45:00,68.2,68.2,28.98,SE,142,0.0,0.0,100,0.00,,OVC048,0.00,VWS V14.01,2013-09-02 07:45:00,
2013-09-02 03:50:00,68.4,68.4,28.98,SE,142,0.0,0.0,100,0.00,,OVC048,0.00,VWS V14.01,2013-09-02 07:50:00,
2013-09-02 03:55:00,68.4,68.4,28.98,SE,142,0.0,0.0,100,0.00,,OVC048,0.00,VWS V14.01,2013-09-02 07:55:00,
2013-09-02 04:00:00,68.5,68.5,28.98,SE,142,0.0,0.0,100,0.00,,OVC048,0.00,VWS V14.01,2013-09-02 08:00:00,
2013-09-02 04:05:00,68.4,68.4,28.98,SE,142,0.0,0.0,100,0.00,,OVC048,0.00,VWS V14.01,2013-09-02 08:05:00,
2013-09-02 04:10:00,68.4,68.4,28.98,SE,142,0.0,0.0,100,0.00,,OVC048,0.00,VWS V14.01,2013-09-02 08:10:00,
2013-09-02 04:15:00,68.4,68.4,28.98,SE,142,0.0,0.0,100,0.00,,OVC048,0.00,VWS V14.01,2013-09-02 08:15:00,
2013-09-02 04:20:00,68.4,68.4,28.98,SE,142,0.0,0.0,100,0.00,,OVC048,0.00,VWS V14.01,2013-09-02 08:20:00,
2013-09-02 04:25:00,68.4,68.4,28.98,SE,142,0.0,0.0,100,0.00,,OVC048,0.00,VWS V14.01,2013-09-02 08:25:00,
2013-09-02 04:30:00,68.5,68.5,28.98,SE,142,0.0,0.0,100,0.00,,OVC048,0.00,VWS V14.01,2013-09-02 08:30:00,
2013-09-02 04:35:00,68.4,68.4,28.98,SE,142,0.0,0.0,100,0.00,,OVC042,0.00,VWS V14.01,2013-09-02 08:35:00,
2013-09-02 04:40:00,68.2,68.2,28.98,SE,142,0.0,0.0,100,0.00,,OVC042,0.00,VWS V14.01,2013-09-02 08:40:00,
2013-09-02 04:45:00,68.4,68.4,28.98,SE,142,0.0,0.0,100,0.00,,OVC042,0.00,VWS V14.01,2013-09-02 08:45:00,
2013-09-02 04:51:00,68.2,68.2,28.98,SE,142,0.0,0.0,100,0.00,,OVC042,0.00,VWS V14.01,2013-09-02 08:51:00,
2013-09-02 04:56:00,68.2,68.2,28.98,South,190,0.0,3.1,100,0.00,,OVC042,0.00,VWS V14.01,2013-09-02 08:56:00,
2013-09-02 05:01:00,68.2,68.2,28.98,SW,214,0.0,3.6,100,0.00,,OVC042,0.00,VWS V14.01,2013-09-02 09:01:00,
2013-09-02 05:06:00,68.2,68.2,28.98,SW,222,0.0,4.0,100,0.00,,OVC042,0.00,VWS V14.01,2013-09-02 09:06:00,
2013-09-02 05:11:00,68.2,68.2,28.98,SSW,195,2.2,3.6,100,0.00,,OVC042,0.00,VWS V14.01,2013-09-02 09:11:00,
2013-09-02 05:16:00,68.2,68.2,28.98,SW,231,0.0,3.1,100,0.00,,OVC042,0.00,VWS V14.01,2013-09-02 09:16:00,
2013-09-02 05:21:00,68.0,68.0,28.98,SW,231,0.0,0.0,100,0.00,,OVC042,0.00,VWS V14.01,2013-09-02 09:21:00,
2013-09-02 05:26:00,67.8,67.8,28.95,SW,231,0.0,0.0,100,0.00,,OVC042,0.00,VWS V14.01,2013-09-02 09:26:00,
2013-09-02 05:31:00,67.8,67.8,28.95,SW,231,0.0,0.0,100,0.00,,OVC042,0.00,VWS V14.01,2013-09-02 09:31:00,
2013-09-02 05:36:00,67.6,67.6,28.95,SW,231,0.0,0.0,100,0.00,,OVC014,0.00,VWS V14.01,2013-09-02 09:36:00,
2013-09-02 05:41:00,67.6,67.6,28.95,SW,231,0.0,0.0,100,0.00,,OVC014,0.00,VWS V14.01,2013-09-02 09:41:00,
2013-09-02 05:46:00,67.6,67.6,28.95,SW,231,0.0,0.0,100,0.00,,OVC014,0.00,VWS V14.01,2013-09-02 09:46:00,
2013-09-02 05:51:00,67.6,67.6,28.95,SW,231,0.0,0.0,100,0.00,,OVC014,0.00,VWS V14.01,2013-09-02 09:51:00,
2013-09-02 05:56:00,67.6,67.6,28.98,SW,231,0.0,0.0,100,0.00,,OVC014,0.00,VWS V14.01,2013-09-02 09:56:00,
2013-09-02 06:01:00,67.6,67.6,28.98,SW,231,0.0,0.0,100,0.00,,OVC014,0.00,VWS V14.01,2013-09-02 10:01:00,
2013-09-02 06:06:00,67.6,67.6,28.98,SW,231,0.0,0.0,100,0.00,,OVC014,0.00,VWS V14.01,2013-09-02 10:06:00,
2013-09-02 06:11:00,67.3,67.3,28.98,WNW,282,0.0,2.2,100,0.00,,OVC014,0.00,VWS V14.01,2013-09-02 10:11:00,
2013-09-02 06:16:00,67.5,67.5,28.98,WSW,252,0.0,2.7,100,0.00,,OVC014,0.00,VWS V14.01,2013-09-02 10:16:00,
2013-09-02 06:21:00,67.6,67.6,28.98,SSW,197,3.1,3.1,100,0.00,,OVC014,0.00,VWS V14.01,2013-09-02 10:21:00,
2013-09-02 06:26:00,67.6,67.6,28.98,SSW,207,0.0,3.1,100,0.00,,OVC014,0.00,VWS V14.01,2013-09-02 10:26:00,
2013-09-02 06:31:00,67.6,67.6,28.98,SSW,207,0.0,3.1,100,0.00,,OVC014,0.00,VWS V14.01,2013-09-02 10:31:00,
2013-09-02 06:36:00,67.5,67.5,28.98,SSW,207,0.0,0.0,100,0.00,,OVC017,0.00,VWS V14.01,2013-09-02 10:36:00,
2013-09-02 06:41:00,67.5,67.5,28.98,SSW,207,0.0,0.0,100,0.00,,OVC017,0.00,VWS V14.01,2013-09-02 10:41:00,
2013-09-02 06:46:00,67.6,67.6,28.98,SSW,207,0.0,0.0,100,0.00,,OVC017,0.00,VWS V14.01,2013-09-02 10:46:00,
2013-09-02 06:51:00,67.8,67.8,28.98,SSW,207,0.0,0.0,100,0.00,,OVC017,0.00,VWS V14.01,2013-09-02 10:51:00,
2013-09-02 06:56:00,68.0,68.0,28.98,SSW,207,0.0,0.0,100,0.00,,OVC017,0.00,VWS V14.01,2013-09-02 10:56:00,
2013-09-02 07:01:00,68.0,68.0,28.98,SSW,207,0.0,0.0,100,0.00,,OVC017,0.00,VWS V14.01,2013-09-02 11:01:00,
2013-09-02 07:06:00,68.0,68.0,28.98,SSW,207,0.0,3.1,100,0.00,,OVC017,0.00,VWS V14.01,2013-09-02 11:06:00,
2013-09-02 07:11:00,68.0,68.0,28.98,SW,221,0.0,4.0,100,0.00,,OVC017,0.00,VWS V14.01,2013-09-02 11:11:00,
2013-09-02 07:16:00,68.0,68.0,28.98,SW,221,0.0,2.7,100,0.00,,OVC017,0.00,VWS V14.01,2013-09-02 11:16:00,
2013-09-02 07:21:00,68.0,68.0,28.98,SW,225,0.0,2.7,100,0.00,,OVC017,0.00,VWS V14.01,2013-09-02 11:21:00,
2013-09-02 07:26:00,68.2,68.2,28.98,SW,220,0.0,3.1,100,0.00,,OVC017,0.00,VWS V14.01,2013-09-02 11:26:00,
2013-09-02 07:31:00,68.5,68.5,28.98,SW,215,2.2,3.6,100,0.00,,OVC017,0.00,VWS V14.01,2013-09-02 11:31:00,
2013-09-02 07:36:00,68.5,68.5,28.98,South,187,2.7,3.6,100,0.00,,OVC030,0.00,VWS V14.01,2013-09-02 11:36:00,
2013-09-02 07:41:00,68.7,68.7,28.98,SW,215,2.7,4.9,100,0.00,,OVC030,0.00,VWS V14.01,2013-09-02 11:41:00,
2013-09-02 07:46:00,68.9,68.9,28.98,SW,229,0.0,6.3,100,0.00,,OVC030,0.00,VWS V14.01,2013-09-02 11:46:00,
2013-09-02 07:51:00,69.1,69.1,28.98,SW,223,3.1,4.0,100,0.00,,OVC030,0.00,VWS V14.01,2013-09-02 11:51:00,
2013-09-02 07:56:00,69.3,69.3,28.98,South,170,4.0,4.0,100,0.00,,OVC030,0.00,VWS V14.01,2013-09-02 11:56:00,
2013-09-02 08:01:00,69.6,69.6,28.98,SSW,205,2.7,5.4,100,0.00,,OVC030,0.00,VWS V14.01,2013-09-02 12:01:00,
2013-09-02 08:06:00,69.8,69.8,28.98,SW,236,3.6,5.4,100,0.00,,OVC030,0.00,VWS V14.01,2013-09-02 12:06:00,
2013-09-02 08:11:00,70.0,70.0,28.98,SW,221,2.7,4.9,100,0.00,,OVC030,0.00,VWS V14.01,2013-09-02 12:11:00,
2013-09-02 08:16:00,70.3,70.3,28.98,SSW,203,4.0,6.3,100,0.00,,OVC030,0.00,VWS V14.01,2013-09-02 12:16:00,
2013-09-02 08:22:00,70.5,70.5,28.98,SW,218,4.0,6.3,100,0.00,,OVC030,0.00,VWS V14.01,2013-09-02 12:22:00,
2013-09-02 08:27:00,70.9,70.9,28.95,SSW,204,3.6,5.8,100,0.00,,OVC030,0.00,VWS V14.01,2013-09-02 12:27:00,
2013-09-02 08:32:00,71.1,71.1,28.95,SW,220,5.4,6.3,100,0.00,,OVC030,0.00,VWS V14.01,2013-09-02 12:32:00,
2013-09-02 08:37:00,71.4,71.4,28.95,SSW,206,4.0,5.8,100,0.00,,BKN250,0.00,VWS V14.01,2013-09-02 12:37:00,
2013-09-02 08:42:00,71.6,71.6,28.95,WSW,250,2.7,5.4,100,0.00,,BKN250,0.00,VWS V14.01,2013-09-02 12:42:00,
2013-09-02 08:47:00,71.8,71.8,28.95,SW,218,3.1,8.3,100,0.00,,BKN250,0.00,VWS V14.01,2013-09-02 12:47:00,
2013-09-02 08:52:00,72.1,72.2,28.95,SW,220,3.6,6.3,100,0.00,,BKN250,0.00,VWS V14.01,2013-09-02 12:52:00,
2013-09-02 08:57:00,72.5,72.5,28.95,SSE,156,6.3,6.3,100,0.00,,BKN250,0.00,VWS V14.01,2013-09-02 12:57:00,
2013-09-02 09:02:00,72.7,72.7,28.95,SW,223,3.1,8.1,100,0.00,,BKN250,0.00,VWS V14.01,2013-09-02 13:02:00,
2013-09-02 09:07:00,72.9,72.9,28.95,SW,224,3.6,8.1,100,0.00,,BKN250,0.00,VWS V14.01,2013-09-02 13:07:00,
2013-09-02 09:12:00,72.9,72.9,28.98,SW,222,6.3,8.7,100,0.00,,BKN250,0.00,VWS V14.01,2013-09-02 13:12:00,
2013-09-02 09:17:00,73.2,73.2,28.98,South,187,4.0,5.8,100,0.00,,BKN250,0.00,VWS V14.01,2013-09-02 13:17:00,
2013-09-02 09:22:00,73.8,73.8,28.98,WSW,237,3.6,6.3,100,0.00,,BKN250,0.00,VWS V14.01,2013-09-02 13:22:00,
2013-09-02 09:27:00,73.6,73.6,28.98,SW,235,3.1,5.8,100,0.00,,BKN250,0.00,VWS V14.01,2013-09-02 13:27:00,
2013-09-02 09:32:00,73.8,73.8,28.98,SSW,197,3.1,7.2,100,0.00,,BKN250,0.00,VWS V14.01,2013-09-02 13:32:00,
2013-09-02 09:37:00,73.8,73.8,28.98,SW,227,4.9,8.1,100,0.00,,BKN250,0.00,VWS V14.01,2013-09-02 13:37:00,
2013-09-02 09:42:00,74.1,74.1,28.98,SW,232,5.4,8.1,100,0.00,,BKN250,0.00,VWS V14.01,2013-09-02 13:42:00,
2013-09-02 09:47:00,74.1,73.8,28.98,SSW,210,3.6,7.6,99,0.00,,BKN250,0.00,VWS V14.01,2013-09-02 13:47:00,
2013-09-02 09:52:00,74.1,73.5,28.98,WSW,253,3.1,6.3,98,0.00,,BKN250,0.00,VWS V14.01,2013-09-02 13:52:00,
2013-09-02 09:57:00,73.9,73.0,28.98,WSW,237,2.7,8.3,97,0.00,,BKN250,0.00,VWS V14.01,2013-09-02 13:57:00,
2013-09-02 10:02:00,74.1,72.9,28.98,WSW,239,5.8,7.2,96,0.00,,BKN250,0.00,VWS V14.01,2013-09-02 14:02:00,
2013-09-02 10:07:00,74.5,73.0,28.98,SW,221,4.0,8.7,95,0.00,,BKN250,0.00,VWS V14.01,2013-09-02 14:07:00,
2013-09-02 10:12:00,75.0,73.8,28.98,SSW,210,7.2,8.1,96,0.00,,BKN250,0.00,VWS V14.01,2013-09-02 14:12:00,
2013-09-02 10:17:00,75.7,74.2,28.98,West,272,3.6,5.4,95,0.00,,BKN250,0.00,VWS V14.01,2013-09-02 14:17:00,
2013-09-02 10:22:00,75.7,73.2,28.98,SSW,209,3.6,5.8,92,0.00,,BKN250,0.00,VWS V14.01,2013-09-02 14:22:00,
2013-09-02 10:27:00,75.9,73.1,28.98,WSW,245,4.9,8.1,91,0.00,,BKN250,0.00,VWS V14.01,2013-09-02 14:27:00,
2013-09-02 10:32:00,75.9,72.8,28.98,SSE,156,4.9,8.1,90,0.00,,BKN250,0.00,VWS V14.01,2013-09-02 14:32:00,
2013-09-02 10:37:00,76.1,73.0,28.98,SW,221,5.4,8.1,90,0.00,,BKN250,0.00,VWS V14.01,2013-09-02 14:37:00,
2013-09-02 10:42:00,76.1,72.6,28.98,SW,233,7.6,8.1,89,0.00,,BKN250,0.00,VWS V14.01,2013-09-02 14:42:00,
2013-09-02 10:47:00,75.9,72.4,28.98,SW,230,4.9,7.6,89,0.00,,BKN250,0.00,VWS V14.01,2013-09-02 14:47:00,
2013-09-02 10:52:00,75.9,72.1,28.98,SW,226,5.4,6.3,88,0.00,,BKN250,0.00,VWS V14.01,2013-09-02 14:52:00,
2013-09-02 10:57:00,75.9,72.1,28.98,WSW,241,0.0,4.9,88,0.00,,BKN250,0.00,VWS V14.01,2013-09-02 14:57:00,
2013-09-02 11:02:00,75.6,70.7,28.98,NW,313,0.0,6.3,85,0.00,,BKN250,0.00,VWS V14.01,2013-09-02 15:02:00,
2013-09-02 11:07:00,75.6,71.1,28.98,West,260,2.7,5.4,86,0.00,,BKN250,0.00,VWS V14.01,2013-09-02 15:07:00,
2013-09-02 11:12:00,75.4,70.9,28.98,SSW,211,2.2,5.8,86,0.00,,BKN250,0.00,VWS V14.01,2013-09-02 15:12:00,
2013-09-02 11:17:00,75.4,71.2,28.98,SSW,195,3.6,5.8,87,0.00,,BKN250,0.00,VWS V14.01,2013-09-02 15:17:00,
2013-09-02 11:23:00,75.2,71.4,28.98,South,171,0.0,3.6,88,0.00,,BKN250,0.00,VWS V14.01,2013-09-02 15:23:00,
2013-09-02 11:28:00,75.4,72.2,28.98,SW,220,3.1,3.6,90,0.00,,BKN250,0.00,VWS V14.01,2013-09-02 15:28:00,
2013-09-02 11:33:00,75.6,72.8,28.98,SW,218,0.0,3.6,91,0.00,,BKN250,0.00,VWS V14.01,2013-09-02 15:33:00,
2013-09-02 11:38:00,75.9,72.8,28.95,SW,216,3.1,4.0,90,0.00,,BKN230,0.00,VWS V14.01,2013-09-02 15:38:00,
2013-09-02 11:43:00,76.6,74.5,28.95,WSW,240,3.1,5.4,93,0.00,,BKN230,0.00,VWS V14.01,2013-09-02 15:43:00,
2013-09-02 11:48:00,77.4,74.9,28.95,SSW,194,3.1,8.7,92,0.00,,BKN230,0.00,VWS V14.01,2013-09-02 15:48:00,
2013-09-02 11:53:00,77.5,74.1,28.95,WSW,237,0.0,7.6,89,0.00,,BKN230,0.00,VWS V14.01,2013-09-02 15:53:00,
2013-09-02 11:58:00,77.5,73.4,28.95,SW,232,4.0,8.1,87,0.00,,BKN230,0.00,VWS V14.01,2013-09-02 15:58:00,
2013-09-02 12:03:00,78.3,74.4,28.95,SW,216,6.3,6.3,88,0.00,,BKN230,0.00,VWS V14.01,2013-09-02 16:03:00,
2013-09-02 12:08:00,78.4,73.6,28.95,WSW,251,3.6,6.3,85,0.00,,BKN210,0.00,VWS V14.01,2013-09-02 16:08:00,
2013-09-02 12:13:00,78.4,72.8,28.95,SW,221,3.6,3.6,83,0.00,,BKN210,0.00,VWS V14.01,2013-09-02 16:13:00,
2013-09-02 12:18:00,78.1,71.0,28.95,West,274,4.9,8.1,79,0.00,,BKN210,0.00,VWS V14.01,2013-09-02 16:18:00,
2013-09-02 12:23:00,78.1,71.0,28.95,SW,236,5.8,8.1,79,0.00,,BKN210,0.00,VWS V14.01,2013-09-02 16:23:00,
2013-09-02 12:28:00,77.9,70.5,28.95,SW,219,3.1,8.7,78,0.00,,BKN210,0.00,VWS V14.01,2013-09-02 16:28:00,
2013-09-02 12:33:00,78.4,71.8,28.95,WSW,254,5.8,7.6,80,0.00,,-RA,0.00,VWS V14.01,2013-09-02 16:33:00,
2013-09-02 12:38:00,78.4,71.4,28.95,SW,219,5.4,8.3,79,0.00,,-RA,0.00,VWS V14.01,2013-09-02 16:38:00,
2013-09-02 12:43:00,78.8,71.7,28.95,South,180,3.1,3.1,79,0.00,,-RA,0.00,VWS V14.01,2013-09-02 16:43:00,
2013-09-02 12:48:00,78.6,70.4,28.95,WSW,242,5.8,8.3,76,0.00,,-RA,0.00,VWS V14.01,2013-09-02 16:48:00,
2013-09-02 12:53:00,78.8,71.0,28.95,SW,219,5.4,5.4,77,0.00,,-RA,0.00,VWS V14.01,2013-09-02 16:53:00,
2013-09-02 12:58:00,78.6,70.8,28.95,WSW,238,3.1,3.1,77,0.00,,-RA,0.00,VWS V14.01,2013-09-02 16:58:00,
2013-09-02 13:03:00,78.1,70.3,28.95,NNW,342,2.7,3.6,77,0.00,,-RA,0.00,VWS V14.01,2013-09-02 17:03:00,
2013-09-02 13:08:00,77.9,70.5,28.95,WSW,251,7.6,7.6,78,0.00,,-RA,0.00,VWS V14.01,2013-09-02 17:08:00,
2013-09-02 13:13:00,77.7,69.9,28.95,WSW,243,8.1,8.1,77,0.00,,-RA,0.00,VWS V14.01,2013-09-02 17:13:00,
2013-09-02 13:18:00,77.5,69.8,28.95,SW,226,6.3,6.3,77,0.00,,-RA,0.00,VWS V14.01,2013-09-02 17:18:00,
2013-09-02 13:23:00,77.5,69.8,28.95,WNW,293,8.1,8.1,77,0.00,,-RA,0.00,VWS V14.01,2013-09-02 17:23:00,
2013-09-02 13:28:00,77.0,68.5,28.95,SSW,206,8.1,12.3,75,0.00,,-RA,0.00,VWS V14.01,2013-09-02 17:28:00,
2013-09-02 13:33:00,77.0,69.2,28.95,SSW,202,8.1,12.8,77,0.00,,BKN200,0.00,VWS V14.01,2013-09-02 17:33:00,
2013-09-02 13:38:00,77.0,68.9,28.95,SW,226,11.0,13.2,76,0.00,,BKN200,0.00,VWS V14.01,2013-09-02 17:38:00,
2013-09-02 13:43:00,76.6,68.9,28.95,WSW,245,5.4,6.3,77,0.00,,BKN200,0.00,VWS V14.01,2013-09-02 17:43:00,
2013-09-02 13:48:00,76.6,69.3,28.95,South,183,7.6,7.6,78,0.00,,BKN200,0.00,VWS V14.01,2013-09-02 17:48:00,
2013-09-02 13:53:00,76.8,69.4,28.95,SW,235,8.1,8.7,78,0.00,,BKN200,0.00,VWS V14.01,2013-09-02 17:53:00,
2013-09-02 13:58:00,77.0,69.2,28.95,SW,227,10.1,10.1,77,0.00,,BKN200,0.00,VWS V14.01,2013-09-02 17:58:00,
2013-09-02 14:03:00,77.4,69.6,28.95,SW,215,8.3,8.3,77,0.00,,BKN200,0.00,VWS V14.01,2013-09-02 18:03:00,
2013-09-02 14:08:00,77.7,70.3,28.95,SW,217,6.3,6.3,78,0.00,,BKN200,0.00,VWS V14.01,2013-09-02 18:08:00,
2013-09-02 14:13:00,77.9,70.1,28.95,SSW,201,7.6,8.1,77,0.00,,BKN200,0.00,VWS V14.01,2013-09-02 18:13:00,
2013-09-02 14:18:00,78.8,71.0,28.95,SSW,212,12.8,12.8,77,0.00,,BKN200,0.00,VWS V14.01,2013-09-02 18:18:00,
2013-09-02 14:23:00,78.6,69.7,28.95,SW,227,10.5,14.5,74,0.00,,BKN200,0.00,VWS V14.01,2013-09-02 18:23:00,
2013-09-02 14:28:00,78.3,67.7,28.95,South,182,4.5,14.5,70,0.00,,BKN200,0.00,VWS V14.01,2013-09-02 18:28:00,
2013-09-02 14:33:00,78.3,67.3,28.95,SW,224,5.8,11.0,69,0.00,,BKN200,0.00,VWS V14.01,2013-09-02 18:33:00,
2013-09-02 14:38:00,78.3,67.7,28.95,ESE,116,0.0,8.7,70,0.00,,BKN200,0.00,VWS V14.01,2013-09-02 18:38:00,
2013-09-02 14:43:00,79.0,68.4,28.95,WSW,243,7.6,8.3,70,0.00,,BKN200,0.00,VWS V14.01,2013-09-02 18:43:00,
2013-09-02 14:48:00,78.3,66.8,28.95,NW,315,5.4,8.1,68,0.00,,BKN200,0.00,VWS V14.01,2013-09-02 18:48:00,
2013-09-02 14:54:00,77.9,66.9,28.92,NW,305,9.2,9.2,69,0.00,,BKN200,0.00,VWS V14.01,2013-09-02 18:54:00,
2013-09-02 14:59:00,77.2,67.1,28.92,SW,230,17.0,17.0,71,0.00,,BKN200,0.00,VWS V14.01,2013-09-02 18:59:00,
2013-09-02 15:04:00,77.0,67.7,28.92,SSW,211,10.1,10.1,73,0.00,,BKN200,0.00,VWS V14.01,2013-09-02 19:04:00,
2013-09-02 15:09:00,76.8,67.9,28.95,SSW,209,4.5,10.1,74,0.00,,BKN200,0.00,VWS V14.01,2013-09-02 19:09:00,
2013-09-02 15:14:00,77.4,68.4,28.95,WSW,237,10.1,10.1,74,0.00,,BKN200,0.00,VWS V14.01,2013-09-02 19:14:00,
2013-09-02 15:19:00,77.9,68.9,28.95,SSW,213,6.3,8.7,74,0.00,,BKN200,0.00,VWS V14.01,2013-09-02 19:19:00,
2013-09-02 15:24:00,78.1,67.5,28.95,West,278,10.1,12.8,70,0.00,,BKN200,0.00,VWS V14.01,2013-09-02 19:24:00,
2013-09-02 15:29:00,77.9,66.1,28.95,SSW,206,6.3,12.3,67,0.00,,BKN200,0.00,VWS V14.01,2013-09-02 19:29:00,
2013-09-02 15:34:00,78.1,65.8,28.95,West,262,10.5,15.9,66,0.00,,BKN200,0.00,VWS V14.01,2013-09-02 19:34:00,
2013-09-02 15:39:00,78.3,66.4,28.95,WSW,243,6.3,10.5,67,0.00,,BKN200,0.00,VWS V14.01,2013-09-02 19:39:00,
2013-09-02 15:44:00,77.9,66.1,28.95,WSW,238,8.1,8.1,67,0.00,,BKN200,0.00,VWS V14.01,2013-09-02 19:44:00,
2013-09-02 15:49:00,77.5,64.9,28.95,SSW,213,8.7,12.8,65,0.00,,BKN200,0.00,VWS V14.01,2013-09-02 19:49:00,
2013-09-02 15:54:00,77.2,64.9,28.95,WNW,294,4.0,8.3,66,0.00,,BKN200,0.00,VWS V14.01,2013-09-02 19:54:00,
2013-09-02 15:59:00,77.2,64.9,28.95,West,267,8.3,8.3,66,0.00,,BKN200,0.00,VWS V14.01,2013-09-02 19:59:00,
2013-09-02 16:04:00,77.5,65.3,28.95,SSW,197,6.3,8.3,66,0.00,,SCT200,0.00,VWS V14.01,2013-09-02 20:04:00,
2013-09-02 16:09:00,77.9,65.2,28.92,West,270,17.4,17.4,65,0.00,,SCT200,0.00,VWS V14.01,2013-09-02 20:09:00,
2013-09-02 16:14:00,77.2,64.9,28.92,West,277,8.1,12.8,66,0.00,,SCT200,0.00,VWS V14.01,2013-09-02 20:14:00,
2013-09-02 16:19:00,77.2,64.5,28.92,WSW,239,12.3,16.3,65,0.00,,SCT200,0.00,VWS V14.01,2013-09-02 20:19:00,
2013-09-02 16:24:00,76.6,64.9,28.95,SW,214,7.6,12.8,67,0.00,,SCT200,0.00,VWS V14.01,2013-09-02 20:24:00,
2013-09-02 16:29:00,76.1,64.8,28.95,SW,230,4.0,6.3,68,0.00,,SCT200,0.00,VWS V14.01,2013-09-02 20:29:00,
2013-09-02 16:34:00,75.9,65.0,28.95,SW,218,6.3,8.1,69,0.00,,BKN200,0.00,VWS V14.01,2013-09-02 20:34:00,
2013-09-02 16:39:00,75.6,65.1,28.95,SW,230,10.1,10.1,70,0.00,,BKN200,0.00,VWS V14.01,2013-09-02 20:39:00,
2013-09-02 16:44:00,74.8,64.8,28.95,North,353,12.3,14.1,71,0.00,,BKN200,0.00,VWS V14.01,2013-09-02 20:44:00,
2013-09-02 16:49:00,72.0,65.1,28.95,NNW,345,5.8,12.8,79,0.04,,BKN200,0.04,VWS V14.01,2013-09-02 20:49:00,
2013-09-02 16:54:00,71.4,65.6,28.95,NW,314,3.6,3.6,82,0.16,,BKN200,0.16,VWS V14.01,2013-09-02 20:54:00,
2013-09-02 16:59:00,70.7,66.0,28.95,NW,318,6.3,6.3,85,0.20,,BKN200,0.20,VWS V14.01,2013-09-02 20:59:00,
2013-09-02 17:04:00,70.5,66.5,28.95,NNW,334,6.7,7.6,87,0.24,,BKN200,0.24,VWS V14.01,2013-09-02 21:04:00,
2013-09-02 17:09:00,70.7,67.3,28.95,NW,322,3.1,8.3,89,0.24,,BKN200,0.24,VWS V14.01,2013-09-02 21:09:00,
2013-09-02 17:14:00,70.3,66.9,28.95,North,357,3.1,5.8,89,0.24,,BKN200,0.24,VWS V14.01,2013-09-02 21:14:00,
2013-09-02 17:19:00,70.3,67.3,28.95,West,268,4.0,11.0,90,0.24,,BKN200,0.24,VWS V14.01,2013-09-02 21:19:00,
2013-09-02 17:24:00,70.3,67.6,28.95,NW,319,8.1,10.5,91,0.24,,BKN200,0.24,VWS V14.01,2013-09-02 21:24:00,
2013-09-02 17:29:00,70.3,67.9,28.95,NNW,334,5.8,8.3,92,0.24,,BKN200,0.24,VWS V14.01,2013-09-02 21:29:00,
2013-09-02 17:34:00,70.3,68.2,28.95,North,353,5.4,8.1,93,0.24,,BKN200,0.24,VWS V14.01,2013-09-02 21:34:00,
2013-09-02 17:39:00,70.2,68.4,28.95,NNW,341,10.5,10.5,94,0.24,,BKN200,0.24,VWS V14.01,2013-09-02 21:39:00,
2013-09-02 17:44:00,70.0,67.9,28.95,NNW,336,4.0,8.7,93,0.24,,BKN200,0.24,VWS V14.01,2013-09-02 21:44:00,
2013-09-02 17:49:00,69.8,68.0,28.95,WSW,258,3.6,5.4,94,0.20,,BKN200,0.24,VWS V14.01,2013-09-02 21:49:00,
2013-09-02 17:54:00,69.8,68.0,28.95,NW,304,11.0,11.0,94,0.12,,BKN200,0.24,VWS V14.01,2013-09-02 21:54:00,
2013-09-02 17:59:00,69.8,68.3,28.95,SW,219,3.1,8.3,95,0.04,,BKN200,0.24,VWS V14.01,2013-09-02 21:59:00,
2013-09-02 18:04:00,69.8,68.3,28.95,NNW,344,3.6,4.0,95,0.00,,BKN200,0.24,VWS V14.01,2013-09-02 22:04:00,
2013-09-02 18:09:00,69.6,68.4,28.95,NW,315,8.3,8.3,96,0.00,,BKN200,0.24,VWS V14.01,2013-09-02 22:09:00,
2013-09-02 18:15:00,69.6,67.8,28.95,WNW,292,3.6,3.6,94,0.00,,BKN200,0.24,VWS V14.01,2013-09-02 22:15:00,
2013-09-02 18:20:00,69.4,67.0,28.95,WSW,252,3.6,8.3,92,0.00,,BKN200,0.24,VWS V14.01,2013-09-02 22:20:00,
2013-09-02 18:25:00,69.3,66.8,28.98,NW,318,4.5,10.1,92,0.00,,BKN200,0.24,VWS V14.01,2013-09-02 22:25:00,
2013-09-02 18:30:00,69.3,66.8,28.98,WNW,285,3.1,6.3,92,0.00,,BKN200,0.24,VWS V14.01,2013-09-02 22:30:00,
2013-09-02 18:35:00,69.1,66.7,28.98,NW,326,6.3,6.3,92,0.00,,BKN200,0.24,VWS V14.01,2013-09-02 22:35:00,
2013-09-02 18:40:00,69.3,66.5,28.98,West,266,0.0,3.1,91,0.00,,BKN200,0.24,VWS V14.01,2013-09-02 22:40:00,
2013-09-02 18:45:00,69.4,67.0,28.98,West,265,3.6,3.6,92,0.00,,BKN200,0.24,VWS V14.01,2013-09-02 22:45:00,
2013-09-02 18:50:00,69.3,66.5,28.98,NE,37,0.0,5.4,91,0.00,,BKN200,0.24,VWS V14.01,2013-09-02 22:50:00,
2013-09-02 18:55:00,68.7,65.3,28.95,WNW,283,3.1,8.7,89,0.00,,BKN200,0.24,VWS V14.01,2013-09-02 22:55:00,
2013-09-02 19:00:00,68.5,64.8,28.95,West,259,2.7,7.6,88,0.00,,BKN200,0.24,VWS V14.01,2013-09-02 23:00:00,
2013-09-02 19:05:00,68.2,64.2,28.95,NW,319,2.7,7.2,87,0.00,,BKN200,0.24,VWS V14.01,2013-09-02 23:05:00,
2013-09-02 19:10:00,68.2,64.2,28.98,WSW,251,6.3,8.3,87,0.00,,BKN200,0.24,VWS V14.01,2013-09-02 23:10:00,
2013-09-02 19:15:00,67.8,63.5,28.98,NW,323,5.8,6.3,86,0.00,,BKN200,0.24,VWS V14.01,2013-09-02 23:15:00,
2013-09-02 19:20:00,67.6,63.0,28.98,West,267,3.6,4.0,85,0.00,,BKN200,0.24,VWS V14.01,2013-09-02 23:20:00,
2013-09-02 19:25:00,67.3,62.6,28.98,NNW,341,5.4,6.3,85,0.00,,BKN200,0.24,VWS V14.01,2013-09-02 23:25:00,
2013-09-02 19:30:00,67.1,62.5,28.98,West,267,2.7,6.7,85,0.00,,BKN200,0.24,VWS V14.01,2013-09-02 23:30:00,
2013-09-02 19:35:00,66.9,61.6,28.98,SW,231,6.3,10.5,83,0.00,,BKN150,0.24,VWS V14.01,2013-09-02 23:35:00,
2013-09-02 19:40:00,66.9,61.2,28.98,West,274,4.0,10.1,82,0.00,,BKN150,0.24,VWS V14.01,2013-09-02 23:40:00,
2013-09-02 19:45:00,66.7,61.1,28.98,SSW,194,0.0,8.1,82,0.00,,BKN150,0.24,VWS V14.01,2013-09-02 23:45:00,
2013-09-02 19:50:00,66.4,60.7,28.98,NNW,329,10.5,10.5,82,0.00,,BKN150,0.24,VWS V14.01,2013-09-02 23:50:00,
2013-09-02 19:55:00,66.2,60.2,28.98,SSW,199,7.2,7.6,81,0.00,,BKN150,0.24,VWS V14.01,2013-09-02 23:55:00,
2013-09-02 20:00:00,66.0,59.7,28.98,NW,326,8.1,8.7,80,0.00,,BKN150,0.24,VWS V14.01,2013-09-03 00:00:00,
2013-09-02 20:05:00,65.8,59.8,28.98,NW,321,8.1,8.7,81,0.00,,BKN150,0.24,VWS V14.01,2013-09-03 00:05:00,
2013-09-02 20:10:00,65.8,60.2,28.98,West,264,2.2,5.4,82,0.00,,BKN150,0.24,VWS V14.01,2013-09-03 00:10:00,
2013-09-02 20:15:00,65.8,60.2,28.98,NW,307,5.4,6.3,82,0.00,,BKN150,0.24,VWS V14.01,2013-09-03 00:15:00,
2013-09-02 20:20:00,65.7,60.0,28.98,NW,305,2.7,5.8,82,0.00,,BKN150,0.24,VWS V14.01,2013-09-03 00:20:00,
2013-09-02 20:25:00,65.5,60.2,28.98,West,262,0.0,2.2,83,0.00,,BKN150,0.24,VWS V14.01,2013-09-03 00:25:00,
2013-09-02 20:30:00,65.1,59.5,28.98,West,268,8.3,8.7,82,0.00,,BKN150,0.24,VWS V14.01,2013-09-03 00:30:00,
2013-09-02 20:35:00,64.9,59.3,28.98,NNW,331,2.2,6.3,82,0.00,,SCT200,0.24,VWS V14.01,2013-09-03 00:35:00,
2013-09-02 20:40:00,64.9,59.0,29.01,NW,321,0.0,8.1,81,0.00,,SCT200,0.24,VWS V14.01,2013-09-03 00:40:00,
2013-09-02 20:45:00,64.6,58.3,29.01,NW,320,4.9,7.6,80,0.00,,SCT200,0.24,VWS V14.01,2013-09-03 00:45:00,
2013-09-02 20:50:00,64.4,58.5,29.01,NNW,343,2.7,5.8,81,0.00,,SCT200,0.24,VWS V14.01,2013-09-03 00:50:00,
2013-09-02 20:55:00,64.2,58.3,29.01,West,275,3.1,5.8,81,0.00,,SCT200,0.24,VWS V14.01,2013-09-03 00:55:00,
2013-09-02 21:00:00,64.0,58.1,29.01,WNW,284,2.7,5.4,81,0.00,,SCT200,0.24,VWS V14.01,2013-09-03 01:00:00,
2013-09-02 21:05:00,63.9,57.9,29.01,West,263,5.8,8.1,81,0.00,,SCT200,0.24,VWS V14.01,2013-09-03 01:05:00,
2013-09-02 21:10:00,63.9,58.3,29.01,NNW,336,5.8,7.6,82,0.00,,SCT200,0.24,VWS V14.01,2013-09-03 01:10:00,
2013-09-02 21:15:00,63.9,58.3,29.01,WSW,252,0.0,3.6,82,0.00,,SCT200,0.24,VWS V14.01,2013-09-03 01:15:00,
2013-09-02 21:20:00,63.7,58.1,29.01,West,261,2.7,3.6,82,0.00,,SCT200,0.24,VWS V14.01,2013-09-03 01:20:00,
2013-09-02 21:25:00,63.5,57.9,29.01,West,273,5.8,5.8,82,0.00,,SCT200,0.24,VWS V14.01,2013-09-03 01:25:00,
2013-09-02 21:30:00,63.5,57.9,29.01,WSW,245,3.1,4.0,82,0.00,,SCT200,0.24,VWS V14.01,2013-09-03 01:30:00,
2013-09-02 21:35:00,63.5,57.6,29.01,NW,312,3.1,7.6,81,0.00,,BKN200,0.24,VWS V14.01,2013-09-03 01:35:00,
2013-09-02 21:40:00,63.5,57.9,29.01,NNW,340,3.1,5.8,82,0.00,,BKN200,0.24,VWS V14.01,2013-09-03 01:40:00,
2013-09-02 21:46:00,63.5,57.9,29.01,WSW,253,5.4,5.4,82,0.00,,BKN200,0.24,VWS V14.01,2013-09-03 01:46:00,
2013-09-02 21:51:00,63.5,57.6,29.01,NNW,337,5.4,8.3,81,0.00,,BKN200,0.24,VWS V14.01,2013-09-03 01:51:00,
2013-09-02 21:56:00,63.3,57.4,29.01,West,270,4.9,7.6,81,0.00,,BKN200,0.24,VWS V14.01,2013-09-03 01:56:00,
2013-09-02 22:01:00,63.1,56.9,29.01,NW,319,0.0,8.1,80,0.00,,BKN200,0.24,VWS V14.01,2013-09-03 02:01:00,
2013-09-02 22:06:00,63.3,57.4,29.01,WNW,289,3.6,5.8,81,0.00,,BKN200,0.24,VWS V14.01,2013-09-03 02:06:00,
2013-09-02 22:11:00,63.3,57.0,29.04,NW,309,5.4,5.4,80,0.00,,BKN200,0.24,VWS V14.01,2013-09-03 02:11:00,
2013-09-02 22:16:00,63.1,56.9,29.04,WNW,297,4.0,6.3,80,0.00,,BKN200,0.24,VWS V14.01,2013-09-03 02:16:00,
2013-09-02 22:21:00,63.1,56.9,29.04,WSW,241,3.1,5.4,80,0.00,,BKN200,0.24,VWS V14.01,2013-09-03 02:21:00,
2013-09-02 22:26:00,63.1,56.9,29.01,ESE,123,2.7,2.7,80,0.00,,BKN200,0.24,VWS V14.01,2013-09-03 02:26:00,
2013-09-02 22:31:00,63.1,56.9,29.01,West,263,2.7,5.8,80,0.00,,BKN200,0.24,VWS V14.01,2013-09-03 02:31:00,
2013-09-02 22:36:00,63.1,56.9,29.01,WSW,258,2.7,6.3,80,0.00,,BKN043,0.24,VWS V14.01,2013-09-03 02:36:00,
2013-09-02 22:41:00,63.1,56.9,29.04,SSW,205,3.1,5.8,80,0.00,,BKN043,0.24,VWS V14.01,2013-09-03 02:41:00,
2013-09-02 22:46:00,63.0,56.3,29.04,SW,226,2.7,7.6,79,0.00,,BKN043,0.24,VWS V14.01,2013-09-03 02:46:00,
2013-09-02 22:51:00,63.0,56.7,29.04,SSW,205,4.9,5.8,80,0.00,,BKN043,0.24,VWS V14.01,2013-09-03 02:51:00,
2013-09-02 22:56:00,63.0,56.7,29.04,WSW,243,2.7,5.4,80,0.00,,BKN043,0.24,VWS V14.01,2013-09-03 02:56:00,
2013-09-02 23:01:00,63.0,56.7,29.04,SW,226,3.1,4.0,80,0.00,,BKN043,0.24,VWS V14.01,2013-09-03 03:01:00,
2013-09-02 23:06:00,63.0,56.7,29.04,SW,216,3.1,6.3,80,0.00,,BKN043,0.24,VWS V14.01,2013-09-03 03:06:00,
2013-09-02 23:11:00,63.0,56.7,29.04,WSW,249,6.3,7.6,80,0.00,,BKN043,0.24,VWS V14.01,2013-09-03 03:11:00,
2013-09-02 23:16:00,62.8,56.2,29.04,SW,236,3.1,6.3,79,0.00,,BKN043,0.24,VWS V14.01,2013-09-03 03:16:00,
2013-09-02 23:21:00,62.8,56.2,29.04,SW,231,5.4,5.4,79,0.00,,BKN043,0.24,VWS V14.01,2013-09-03 03:21:00,
2013-09-02 23:26:00,62.8,56.5,29.04,SW,226,4.9,4.9,80,0.00,,BKN043,0.24,VWS V14.01,2013-09-03 03:26:00,
2013-09-02 23:31:00,62.8,56.9,29.04,SSW,209,3.6,4.9,81,0.00,,BKN043,0.24,VWS V14.01,2013-09-03 03:31:00,
2013-09-02 23:36:00,62.8,56.9,29.04,SW,223,3.6,5.8,81,0.00,,SCT050,0.24,VWS V14.01,2013-09-03 03:36:00,
2013-09-02 23:41:00,62.8,56.9,29.04,WSW,252,3.1,5.8,81,0.00,,SCT050,0.24,VWS V14.01,2013-09-03 03:41:00,
2013-09-02 23:46:00,62.8,56.9,29.04,SW,222,3.6,5.8,81,0.00,,SCT050,0.24,VWS V14.01,2013-09-03 03:46:00,
2013-09-02 23:51:00,62.8,56.9,29.04,SSW,203,4.0,4.0,81,0.00,,SCT050,0.24,VWS V14.01,2013-09-03 03:51:00,
2013-09-02 23:56:00,62.6,56.7,29.04,SW,225,3.1,5.8,81,0.00,,SCT050,0.24,VWS V14.01,2013-09-03 03:56:00,